Saginaw, MI

7:57 PM EST on December 12, 2017 (GMT -0500)
MBS International

Weather History for KMBS - March, 2013

Change the Weather History Date:

Friday, March 15, 2013

  Actual Average Record
Temperature  
Mean Temperature 34 °F 33 °F  
Max Temperature 39 °F 42 °F 78 °F (2012)
Min Temperature 30 °F 25 °F 13 °F (1998)
Degree Days  
Heating Degree Days 30    
Month to date heating degree days  
Since 1 July heating degree days  
Cooling Degree Days 0    
Month to date cooling degree days  
Year to date cooling degree days  
Moisture  
Dew Point 27 °F    
Average Humidity 73    
Maximum Humidity 78    
Minimum Humidity 60    
Precipitation  
Precipitation 0.00 in 0.07 in 0.01 in (2011)
Month to date precipitation 1.00  
Year to date precipitation 4.32  
Snow  
Snow 0.00 in - - ()
Month to date snowfall  
Since 1 July snowfall  
Snow Depth -    
Sea Level Pressure  
Sea Level Pressure 29.92 in    
Wind  
Wind Speed 11 mph (WSW)    
Max Wind Speed 16 mph    
Max Gust Speed 24 mph    
Visibility 9 miles    
Events      
T = Trace of Precipitation, MM = Missing Value Source: NWS Daily Summary

Daily Weather History Graph

Daily Weather History Graph

Search for Another Location

Airport or City:

Trip Planner

Search our weather history database for the weather conditions in past years. The results will help you decide how hot, cold, wet, or windy it might be!

Date:

Astronomy

Mar. 15, 2013 Rise Set
Actual Time 7:48 AM EDT 7:42 PM EDT
Civil Twilight 7:19 AM EDT 8:11 PM EDT
Nautical Twilight 6:46 AM EDT 8:44 PM EDT
Astronomical Twilight 6:12 AM EDT 9:18 PM EDT
Moon 9:29 AM EDT (3/15) No Moon Set
Length of Visible Light 12h 51m
Length of Day
11h 54m
Waxing Crescent, 15% of the Moon is Illuminated
Mar 15
Waxing Crescent
Mar 19
First Quarter
Mar 27
Full
Apr 3
Last Quarter
Apr 10
New

Hourly Weather History & Observations

Time (EDT) Temp. Windchill Dew Point Humidity Pressure Visibility Wind Dir Wind Speed Gust Speed Precip Events Conditions
12:53 AM 30.9 °F 21.7 °F 19.0 °F 61% 30.05 in 10.0 mi WSW 11.5 mph - N/A   Clear
1:53 AM 32.0 °F 23.6 °F 21.9 °F 66% 30.02 in 10.0 mi WSW 10.4 mph 18.4 mph N/A   Overcast
2:53 AM 32.0 °F 23.0 °F 23.0 °F 69% 30.00 in 10.0 mi SW 11.5 mph - N/A   Overcast
3:45 AM 32.0 °F 23.0 °F 24.8 °F 75% 29.96 in 10.0 mi WSW 11.5 mph - N/A   Mostly Cloudy
3:53 AM 33.1 °F 24.4 °F 25.0 °F 72% 29.98 in 10.0 mi WSW 11.5 mph - N/A   Overcast
4:53 AM 34.0 °F 24.2 °F 27.0 °F 75% 29.92 in 9.0 mi WSW 15.0 mph 24.2 mph N/A   Overcast
5:53 AM 34.0 °F 23.8 °F 27.0 °F 75% 29.92 in 10.0 mi West 16.1 mph - N/A   Overcast
6:53 AM 34.0 °F 23.8 °F 27.0 °F 75% 29.90 in 10.0 mi West 16.1 mph 24.2 mph N/A   Overcast
7:53 AM 34.0 °F 24.6 °F 27.0 °F 75% 29.90 in 9.0 mi WSW 13.8 mph - N/A   Overcast
8:53 AM 34.0 °F 25.5 °F 27.0 °F 75% 29.91 in 7.0 mi West 11.5 mph - N/A   Overcast
9:53 AM 35.1 °F 26.9 °F 28.0 °F 76% 29.90 in 7.0 mi West 11.5 mph - N/A   Overcast
10:53 AM 35.1 °F 27.9 °F 28.9 °F 78% 29.91 in 6.0 mi West 9.2 mph - N/A   Haze
11:53 AM 36.0 °F 29.6 °F 28.9 °F 76% 29.90 in 7.0 mi WSW 8.1 mph - N/A   Overcast
12:53 PM 37.0 °F 31.6 °F 28.9 °F 73% 29.90 in 7.0 mi WSW 6.9 mph - N/A   Overcast
1:53 PM 37.0 °F 31.6 °F 28.9 °F 73% 29.89 in 7.0 mi SW 6.9 mph - N/A   Overcast
2:53 PM 37.0 °F 31.0 °F 28.9 °F 73% 29.88 in 7.0 mi WSW 8.1 mph - N/A   Overcast
3:53 PM 37.9 °F 33.5 °F 30.0 °F 73% 29.88 in 8.0 mi SW 5.8 mph - N/A   Overcast
4:28 PM 37.4 °F 31.4 °F 30.2 °F 75% 29.86 in 9.0 mi SW 8.1 mph - N/A   Overcast
4:53 PM 39.0 °F 34.0 °F 30.0 °F 70% 29.88 in 10.0 mi SW 6.9 mph - N/A   Overcast
5:53 PM 39.0 °F 32.8 °F 26.1 °F 60% 29.88 in 10.0 mi WSW 9.2 mph - N/A   Mostly Cloudy
6:53 PM 37.0 °F 30.4 °F 28.9 °F 73% 29.88 in 10.0 mi SW 9.2 mph - N/A   Scattered Clouds
7:53 PM 37.0 °F 34.5 °F 26.1 °F 65% 29.89 in 10.0 mi WSW 3.5 mph - N/A   Mostly Cloudy
8:53 PM 34.0 °F 28.0 °F 27.0 °F 75% 29.89 in 10.0 mi NNE 6.9 mph - N/A   Mostly Cloudy
9:53 PM 33.1 °F 26.1 °F 27.0 °F 78% 29.91 in 10.0 mi North 8.1 mph - N/A   Mostly Cloudy
10:53 PM 32.0 °F 23.0 °F 25.0 °F 75% 29.90 in 10.0 mi ENE 11.5 mph - N/A   Overcast
11:53 PM 30.9 °F 20.2 °F 24.1 °F 76% 29.89 in 10.0 mi East 15.0 mph - N/A   Overcast